Погода в Тамбове

Поиск расширенной информации на нашем сайте:

Полезная информация:

Новости сайта



02.01.2020
Опубликован Долгосрочный прогноз погоды по городам России и ближнего зарубежья на январь 2020 года.
Карты: Прогноз на январь и февраль 2020 года, Сравнение прогнозируемой аномалии приземной температуры воздуха на январь 2020 года по разным моделям.




Погода в Тамбове - сегодня

Время (UTC), дата Ветер
(°,м/с) 
Видим.   Явления Облачность Т
(°С)
Тd
(°С)
f(%) Тe
(°С)
Pmin
(гПа)
dP
(гПа)
Po
(мм)
O2
(г/м3)
Тmin Tmax R s Состояние
почвы
00 16.01.22 310 (СЗ) 8-10{12}  10 км  позёмок{ливн. осадки}  10/10 1300 м 
[Sc]
-2.9 -5.9 80 -8  999  2.8  737  301           
03 16.01.22 310 (СЗ) 8-10{13}  8000 м  слаб. ливневой снег  10/10 1200 м кучево-дожд. 
[Cb calv]
-3.7 -6.6 80 -9  1000.7  1.5  738  302  -4    0.3  24  неравномерный
сухой снег
100% 
06 16.01.22 300 (СЗ) 8-10{10}  10 км  позёмок{ливн. осадки}  9/0 средняя 
[Ac trans]
-4.1 -7.5 77 -9  1004  3.3  740  304  -4.2         
09 16.01.22 320 (СЗ) 7{10}  10 км  позёмок  9/4 1000 м средняя 
[Sc|Ac trans]
-3.6 -7.6 74 -8  1005.9  1.8  742  304           
12 16.01.22 290 (З) 7{10}  10 км  позёмок  9/9 600 м 
[Sc]
-4.6 -8.5 74 -9  1008.1  2.2  743  306           
15 16.01.22 280 (З) 10 км    3/0 средняя 
[Ac trans]
-8.5 -11.3 80 -12  1010.3  1.9  745  311    -3.3  0.0     
18 16.01.22 260 (З) 10 км    3/0 верхняя 
[Ci fib]
-10.9 -12.9 85 -15  1011.3  0.9  746  314           
21 16.01.22 180 (Ю) н/о    н/о 
-9.3 -10.8 89 -12  1011.1  -0.5  746  312           
00 17.01.22 160 (Ю) 10 км    9/9 400 м 
[Sc]
-11.2 -11.8 95 -15  1009.4  -0.9  744  314           
03 17.01.22 200 (Ю) 10 км    3/0 верхняя 
[Ci fib]
-9.1 -11.2 85 -13  1007.4  -1.9  743  311  -11.5      24  неравномерный
сухой снег
100% 
06 17.01.22 170 (Ю) 10 км    9/6 870 м средняя 
[Sc|Ac trans]
-7.5 -9.7 84 -12  1005.7  -1.7  741  308           
09 17.01.22 190 (Ю) 9-12{12}  10 км  позёмок  9/0 средняя 
[Ac trans]
-3.6 -7.2 76 -9  1002  -3.4  739  302           
12 17.01.22 190 (Ю) 9-14{14}  10 км  позёмок  9/6 570 м средняя 
[Sc|Ac trans]
-3 -6.4 77 -8  998.5  -3.3  736  301           
15 17.01.22 200 (Ю) 9-14{15}  5000 м  слаб. снег  10/10 300 м 
[Frnb|Ns]
-2.9 -4.9 86 -8  996.2  -2.3  735  300    -2.7  0.4     
18 17.01.22 180 (Ю) 7-12{14}  5000 м  слаб. снег  10/10 300 м 
[Frnb|Ns]
-2.3 -3.5 91 -7  995.5  -0.7  734  299           
21 17.01.22 200 (Ю) 6{10}  н/о    н/о 
-1.2 -1.8 96 -5  994.6  -1.2  734  297           
00 18.01.22 180 (Ю) 10 км  слаб. снег  10/10 270 м 
[Frnb|Ns]
+0.1 -1 92 -3  994.2  733  295           
03 18.01.22 180 (Ю) 10 км  слаб. снег  10/10 210 м 
[Frnb|Ns]
+0.3 -0.5 94 -3  993.8  -0.3  733  295  -3    26  неравномерный
сухой снег
100% 
06 18.01.22 150 (ЮВ) 2500 м  ливневой снег  10/10 150 м кучево-дожд. 
[Cb cap]
+0 -0.3 98 -3  995.4  1.5  734  296           
09 18.01.22 150 (ЮВ) 5000 м  слаб. ливневой снег  10/10 150 м кучево-дожд. 
[Cb cap]
+0.3 -0.3 96 -2  997.1  1.8  736  296           
12 18.01.22 170 (Ю) 6000 м  дымка{ливн. осадки}  10/10 210 м 
[St]
+0.7 -0.1 94 -1  999.2  737  296           
15 18.01.22 140 (ЮВ) 3000 м  слаб. снег{ливн. осадки}  10/10 150 м 
[Frnb|Ns]
+0.2 -0.4 96 -1  1002.4  3.2  739  298    +0.7     
18 18.01.22 140 (ЮВ) 2500 м  ливневой снег  10/10 150 м кучево-дожд. 
[Cb cap]
+0.1 -0.2 98 +1  1005.3  2.9  742  299           
21 18.01.22 140 (ЮВ) 2500 м  ливневой снег  10/10 150 м кучево-дожд. 
[Cb cap]
-0.1 -0.4 98 -1  1007.6  2.2  743  300           
00 19.01.22 340 (С) 10 км  {ливн. осадки}  10/10 180 м 
[St]
-2.8 -4.1 91 -7  1009.5  1.9  745  304           
Время (UTC), дата Ветер
(°,м/с) 
Видим.   Явления Облачность Т
(°С)
Тd
(°С)
f(%) Тe
(°С)
Pmin
(гПа)
dP
(гПа)
Po
(мм)
O2
(г/м3)
Тmin Tmax R s Состояние
почвы

Для получения пояснительной информации подведите курсор к названию столбца.

ПОГОДА в Тамбове - архив

Всё, что Вы хотите узнать о погоде в Тамбове - удобно и подробно!

Выберите нужную дату (начиная с 1 января 2019* года) и нажмите кнопку "Найти".
Будут отображены архивные сводки погоды по пункту Тамбов, начиная с указанной даты.


Отображать данные в формате CSV (для использования в таблицах Excel)


Внимание! Наш архив погоды предназначен исключительно для личного некоммерческого использования в познавательных целях. Если Вам необходимы официальные справки о состоянии погоды (для производственных, юридических, коммерческих и т.п. целей), обращайтесь в органы Росгидромета.

*Примечание: данная дата относится к архиву по метеостанциям СССР (Россия, СНГ, Балтия).
Архив по метеостанциям Зарубежной Европы и Азии (кроме Китая) хранится 10 дней, по другим регионам земного шара (Китай, Африка, Америка, Австралия, Океания) - 1 день.

Тамбов - район местоположения метеостанции


Название, широта, долгота, высота метеостанции:
Тамбов 52.8°ш. 41.3°д. 128 м над ур. моря [Российская Федерация]

Дополнительная информация

В oтличие oт бoльшинства пoгoдных сайтoв мы публикуем пoдрoбную метеoинфoрмацию в детальнoм прoфессиoнальнoм фoрмате.

Характеристики температуры и влажнoсти вoздуха измеряются на высoте 2 м в тени вдали oт зданий и деревьев.
Скoрoсть ветра измеряется на высoте 10 м (на урoвне рoста челoвека скoрoсть ветра ниже в 1.5-2 раза). Если метеoстанция нахoдится в гoрoде или в лесу, тo скoрoсть ветра занижена на 2-4 м/с пo сравнению с oткрытым местoм. Скoрoсть ветра над акватoриями крупных рек и oзёр, а также на вершинах хoлмoв на 2-5 м/с выше, чем в oбычных услoвиях.
Атмoсфернoе давление в разных тoчках местнoсти мoжет значительнo oтличаться oт давления на метеoстанции, в зависимoсти oт услoвий рельефа (при пoдъёме на 10 м давление пoнижается примернo на 1 мм рт.ст.).